Home   Weather   Halmstad   Past weeks

Flag for Sweden Past Weather in Halmstad, Sweden — Yesterday and Last 2 Weeks

Now
23 °F

Cold.


Feels Like: 23 °F
Forecast: 21 / 34 °F
Wind: 2 mph from Northeast

Location: Halmstad Swedish Air Force Base

Current Time: Jan 16, 2017 at 11:20:26 pm

Latest Report: Jan 16, 2017 at 10:20 pm


Visibility: N/A

Pressure: 30.45 "Hg

Humidity: 93%

Dew Point: 21 °F

Location of HalmstadLocation

Past Weather in Halmstad — Graph

°F

Halmstad Temperature Yesterday

Maximum temperature yesterday: 32 °F (at 12:20 am)
Minimum temperature yesterday: 23 °F (at 8:20 pm)
Average temperature yesterday: 27 °F

High & Low Weather Summary for the Past Weeks

 TemperatureHumidityPressure
High43 °F (Jan 3, 4:50 pm)100% (Jan 3, 10:20 am)30.77 "Hg (Jan 3, 10:20 am)
Low7 °F (Jan 6, 5:50 am)53% (Jan 5, 6:50 am)28.94 "Hg (Jan 11, 5:50 pm)
Average31 °F85%29.86 "Hg
* Reported Jan 1 9:20 pm — Jan 16 9:50 pm, Halmstad, Weather by CustomWeather, © 2017

Note: Actual official high and low records may vary slightly from our data, if they occured in-between our weather recording intervals... More about our weather records

Advertising

Halmstad Weather History for the Previous 24 Hours

Scroll right to see more
 ConditionsComfort  
Time TempWeatherWind HumidityBarometerVisibility
9:50 pm
Mon, Jan 16
23 °FCold.6 mph93%30.45 "HgN/A
9:20 pm23 °FCold.2 mph93%30.45 "HgN/A
8:50 pm23 °FCold.2 mph93%30.42 "Hg1 mi
8:20 pm23 °FCold.2 mph93%30.42 "HgN/A
7:50 pm25 °FCold.3 mph86%30.39 "HgN/A
7:20 pm25 °FCold.5 mph86%30.39 "HgN/A
6:50 pm27 °FOvercast.2 mph86%30.39 "HgN/A
6:20 pm27 °FPassing clouds.5 mph86%30.39 "HgN/A
5:50 pm27 °FClear.10 mph86%30.36 "Hg10 mi
5:20 pm25 °FClear.7 mph86%30.36 "Hg10 mi
4:50 pm25 °FClear.6 mph86%30.36 "Hg10 mi
4:20 pm27 °FClear.5 mph80%30.33 "Hg10 mi
3:50 pm28 °FSunny.5 mph80%30.33 "Hg10 mi
3:20 pm28 °FPassing clouds.5 mph80%30.33 "HgN/A
2:50 pm28 °FScattered clouds.8 mph80%30.30 "HgN/A
2:20 pm28 °FPartly sunny.9 mph80%30.30 "HgN/A
1:50 pm28 °FOvercast.8 mph80%30.30 "HgN/A
1:20 pm28 °FSunny.7 mph74%30.30 "Hg10 mi
12:50 pm28 °FSunny.8 mph74%30.30 "Hg10 mi
12:20 pm28 °FSunny.5 mph74%30.30 "Hg10 mi
11:50 am27 °FSunny.2 mph74%30.30 "Hg10 mi
11:20 am27 °FSunny.7 mph74%30.30 "Hg10 mi
10:50 am25 °FSunny.No wind80%30.27 "Hg10 mi
10:20 am23 °FSunny.3 mph80%30.27 "Hg10 mi
9:50 am21 °FSunny.2 mph86%30.27 "Hg10 mi
9:20 am19 °FSunny.2 mph86%30.27 "Hg10 mi
8:50 am16 °FSunny.5 mph86%30.27 "Hg10 mi
8:20 am19 °FClear.6 mph86%30.24 "Hg10 mi
7:50 am21 °FClear.5 mph86%30.24 "Hg10 mi
7:20 am19 °FClear.3 mph93%30.21 "Hg10 mi
6:50 am19 °FClear.3 mph93%30.21 "Hg10 mi
6:20 am19 °FCold.6 mph93%30.21 "HgN/A
5:50 am21 °FCold.6 mph86%30.21 "HgN/A
5:20 am21 °FCold.5 mph86%30.21 "HgN/A
4:50 am21 °FCold.2 mph86%30.21 "HgN/A
4:20 am21 °FCold.3 mph86%30.21 "HgN/A
3:50 am21 °FCold.6 mph86%30.21 "HgN/A
3:20 am23 °FCold.7 mph80%30.21 "HgN/A
2:50 am23 °FCold.5 mph86%30.21 "HgN/A
2:20 am23 °FCold.5 mph86%30.18 "HgN/A
1:20 am23 °FCold.7 mph86%30.18 "HgN/A
12:50 am23 °FCold.9 mph86%30.18 "HgN/A
12:20 am23 °FCold.9 mph86%30.18 "HgN/A
11:50 pm
Sun, Jan 15
23 °FCold.5 mph86%30.15 "HgN/A
11:20 pm23 °FCold.6 mph86%30.15 "HgN/A
Weather by CustomWeather, © 2017

See weather overviewHow to use our weather pages